Latest Weather Observations for Clare

IDS60801

Issued at 9:05 pm CST Saturday 19 April 2014 (issued every 30 minutes, with the page automatically refreshed every 10 minutes)

About weather observations | Map of weather stations | Latest weather observations for SA | Other Formats
Station Details ID: 021131 Name: CLARE HIGH SCHOOL Lat: -33.82 Lon: 138.59 Height: 395.0 m
Data from the previous 72 hours. | See also: Recent months at Clare
Date/Time
CST
Temp
°C
App
Temp
°C
Dew
Point
Rel
Hum
%
Delta-T
°C
Wind Press
QNH
hPa
Press
MSL
hPa
Rain
since 9 am
mm
Dir
 
Spd
km/h
Gust
km/h
Spd
kts
Gust
kts
19/09:00pm 12.5 11.4 6.8 68 2.8 ESE 2 9 1 5 1018.8 1018.2 0.0
19/08:30pm 12.9 11.5 7.1 68 2.9 ESE 4 7 2 4 1018.8 - 0.0
19/08:00pm 12.8 11.0 7.3 69 2.7 ESE 6 9 3 5 1018.8 - 0.0
19/07:30pm 13.3 11.4 6.6 64 3.3 SE 6 9 3 5 1018.8 - 0.0
19/07:00pm 13.6 12.8 6.5 62 3.5 CALM 0 6 0 3 1018.8 - 0.0
19/06:30pm 13.9 13.6 8.7 71 2.7 CALM 0 0 0 0 1018.7 - 0.0
19/06:00pm 14.6 13.8 6.4 58 4.0 CALM 0 6 0 3 1018.6 1017.9 0.0
19/05:30pm 15.1 13.4 5.9 54 4.5 SW 4 7 2 4 1018.6 - 0.0
19/05:00pm 15.2 13.0 6.0 54 4.5 SSW 7 15 4 8 1018.5 - 0.0
19/04:30pm 15.7 13.4 5.6 51 4.9 WSW 7 15 4 8 1018.6 - 0.0
19/04:00pm 16.3 13.3 5.9 50 5.1 W 11 17 6 9 1018.6 - 0.0
19/03:30pm 16.7 12.7 5.0 46 5.7 WSW 15 28 8 15 1018.6 - 0.0
19/03:00pm 17.0 13.9 7.4 53 4.9 WSW 13 19 7 10 1018.7 1018.0 0.0
19/02:30pm 16.8 13.2 6.6 51 5.1 W 15 24 8 13 1018.7 - 0.0
19/02:00pm 17.1 13.7 7.5 53 4.9 W 15 33 8 18 1018.9 - 0.0
19/01:30pm 16.2 11.7 6.3 52 4.9 WSW 19 30 10 16 1019.1 - 0.0
19/01:00pm 16.4 13.1 6.2 51 5.1 W 13 26 7 14 1019.6 - 0.0
19/12:30pm 16.2 13.3 6.3 52 4.9 WNW 11 22 6 12 1020.3 - 0.0
19/12:00pm 16.0 13.7 7.5 57 4.3 WNW 9 19 5 10 1021.0 1020.4 0.0
19/11:30am 15.1 12.6 6.7 57 4.2 N 9 20 5 11 1021.7 - 0.0
19/11:00am 14.4 11.8 6.3 58 4.0 NE 9 17 5 9 1022.0 - 0.0
19/10:30am 13.3 11.4 7.5 68 2.9 ENE 7 17 4 9 1022.3 - 0.0
19/10:00am 13.0 10.3 7.2 68 2.9 ENE 11 17 6 9 1022.7 - 0.0
19/09:30am 12.2 9.5 7.5 73 2.3 NE 11 19 6 10 1023.1 - 0.0
19/09:00am 11.3 9.0 7.6 78 1.8 NE 9 19 5 10 1023.4 1022.8 0.4
19/08:30am 10.4 7.4 7.6 83 1.4 ENE 13 19 7 10 1023.0 - 0.4
19/08:00am 9.0 7.3 7.5 90 0.7 E 6 9 3 5 1022.9 - 0.4
19/07:30am 5.1 - 5.2 - - CALM 0 0 0 0 1022.8 - 0.4
19/07:00am 3.0 1.5 2.9 99 0.0 CALM 0 0 0 0 1022.6 - 0.4
19/06:30am 3.0 1.4 2.7 98 0.1 CALM 0 0 0 0 1022.4 - 0.4
19/06:00am 3.3 1.8 2.9 97 0.2 ESE 0 0 0 0 1022.4 1021.8 0.4
19/05:30am 3.8 2.4 3.4 97 0.2 CALM 0 0 0 0 1022.3 - 0.4
19/05:00am 4.7 3.5 4.6 99 0.0 CALM 0 0 0 0 1022.2 - 0.4
19/04:30am 4.4 3.1 4.0 97 0.2 CALM 0 0 0 0 1022.1 - 0.4
19/04:00am 5.2 3.6 4.5 95 0.3 SE 2 6 1 3 1022.0 - 0.4
19/03:30am 5.4 3.1 5.0 97 0.2 ESE 6 9 3 5 1022.0 - 0.4
19/03:00am 5.0 3.8 4.4 96 0.3 CALM 0 6 0 3 1022.2 1021.6 0.4
19/02:30am 5.2 3.9 4.3 94 0.4 CALM 0 0 0 0 1022.3 - 0.4
19/02:00am 5.5 4.3 4.5 93 0.4 CALM 0 6 0 3 1022.4 - 0.4
19/01:30am 5.7 4.5 4.7 93 0.4 CALM 0 6 0 3 1022.6 - 0.4
19/01:00am 5.8 4.7 4.9 94 0.4 CALM 0 6 0 3 1022.7 - 0.4
19/12:30am 5.5 4.3 4.6 94 0.4 CALM 0 2 0 1 1022.8 - 0.4
19/12:00am 6.2 5.2 5.5 95 0.3 ESE 0 0 0 0 1022.8 1022.2 0.4
 
Date/Time
CST
Temp
°C
App
Temp
°C
Dew
Point
Rel
Hum
%
Delta-T
°C
Wind Press
QNH
hPa
Press
MSL
hPa
Rain
since 9 am
mm
Dir
 
Spd
km/h
Gust
km/h
Spd
kts
Gust
kts
18/11:30pm 6.3 5.3 5.4 94 0.4 CALM 0 0 0 0 1023.0 - 0.4
18/11:00pm 7.3 6.4 6.1 92 0.6 CALM 0 0 0 0 1023.3 - 0.4
18/10:30pm 7.7 6.8 6.2 90 0.7 CALM 0 0 0 0 1023.4 - 0.4
18/10:00pm 9.3 8.5 6.7 84 1.2 CALM 0 0 0 0 1023.6 - 0.4
18/09:30pm 10.3 8.6 7.4 82 1.4 SE 6 13 3 7 1023.5 - 0.4
18/09:00pm 10.4 9.1 7.8 84 1.3 ESE 4 11 2 6 1023.1 1022.6 0.4
18/08:30pm 11.1 9.3 8.0 81 1.5 SSE 7 13 4 7 1023.1 - 0.4
18/08:00pm 11.3 9.7 8.2 81 1.6 SSE 6 13 3 7 1023.1 - 0.4
18/07:30pm 11.5 10.4 8.4 81 1.6 SSE 4 9 2 5 1023.4 - 0.4
18/07:00pm 12.2 10.0 7.9 75 2.2 S 9 13 5 7 1023.1 - 0.4
18/06:30pm 12.6 10.6 7.1 69 2.7 S 7 11 4 6 1022.9 - 0.4
18/06:00pm 13.3 11.7 6.4 63 3.4 S 4 9 2 5 1022.5 1021.9 0.4
18/05:30pm 14.6 12.2 6.9 60 3.8 S 9 17 5 9 1022.4 - 0.4
18/05:00pm 15.6 12.1 7.1 57 4.3 S 15 22 8 12 1022.2 - 0.4
18/04:30pm 16.4 13.2 8.4 59 4.2 S 15 24 8 13 1021.9 - 0.4
18/04:00pm 16.7 13.0 8.1 57 4.5 S 17 30 9 16 1021.8 - 0.4
18/03:30pm 17.7 15.1 10.8 64 3.8 SSW 15 28 8 15 1021.6 - 0.4
18/03:00pm 17.6 13.9 10.0 61 4.1 SSW 20 32 11 17 1021.5 1020.9 0.4
18/02:30pm 17.9 14.2 10.0 60 4.3 SSW 20 35 11 19 1021.2 - 0.4
18/02:00pm 18.2 15.1 10.3 60 4.3 SW 17 33 9 18 1021.3 - 0.4
18/01:30pm 18.1 15.3 11.4 65 3.7 SSW 17 26 9 14 1021.3 - 0.4
18/01:00pm 18.2 14.9 11.0 63 4.0 SSW 19 32 10 17 1021.5 - 0.4
18/12:30pm 18.1 15.7 12.5 70 3.2 SSW 17 24 9 13 1021.9 - 0.4
18/12:00pm 17.2 14.7 12.3 73 2.7 SW 17 24 9 13 1022.3 1021.7 0.4
18/11:30am 16.7 14.5 13.2 80 2.0 S 17 26 9 14 1022.5 - 0.4
18/11:00am 16.4 15.0 13.5 83 1.7 SW 13 22 7 12 1022.6 - 0.4
18/10:30am 14.9 13.9 14.6 98 0.2 SW 13 22 7 12 1022.8 - 0.4
18/10:00am 14.2 12.9 13.7 97 0.3 WSW 13 20 7 11 1022.8 - 0.4
18/09:30am 14.3 13.1 14.0 98 0.2 WSW 13 24 7 13 1022.9 - 0.2
18/09:00am 14.2 13.3 13.7 97 0.3 W 11 22 6 12 1022.7 1022.1 0.0
18/08:30am 14.3 13.4 13.8 97 0.3 WSW 11 17 6 9 1022.5 - 0.0
18/08:00am 14.2 13.4 14.0 99 0.1 WSW 11 17 6 9 1022.2 - 0.0
18/07:30am 13.5 - 13.7 - - SSW 7 15 4 8 1021.6 - 0.0
18/07:00am 13.4 - 13.7 - - WSW 9 17 5 9 1021.6 - 0.0
18/06:30am 13.5 - 13.8 - - WSW 7 15 4 8 1021.3 - 0.0
18/06:00am 13.5 - 13.7 - - WSW 9 15 5 8 1021.2 1020.6 0.0
18/05:30am 13.5 - 13.7 - - WSW 11 19 6 10 1021.0 - 0.0
18/05:00am 13.6 - 13.8 - - SW 11 19 6 10 1020.9 - 0.0
18/04:30am 13.7 - 13.9 - - WSW 11 20 6 11 1020.7 - 0.0
18/04:00am 13.7 12.0 13.5 99 0.1 W 15 28 8 15 1020.7 - 0.0
18/03:30am 13.2 12.4 12.9 98 0.2 WSW 9 15 5 8 1020.4 - 0.0
18/03:00am 12.7 11.9 11.8 94 0.5 W 7 11 4 6 1020.2 1019.6 0.0
18/02:30am 13.1 12.2 11.5 90 0.9 WSW 7 13 4 7 1020.2 - 0.0
18/02:00am 13.0 12.0 10.9 87 1.1 W 7 11 4 6 1020.4 - 0.0
18/01:30am 12.9 11.9 10.4 85 1.3 W 6 11 3 6 1020.6 - 0.0
18/01:00am 13.5 12.9 10.3 81 1.7 WSW 4 7 2 4 1020.7 - 0.0
18/12:30am 14.1 13.0 10.7 80 1.8 W 7 11 4 6 1020.7 - 0.0
18/12:00am 10.5 10.5 9.7 95 0.4 CALM 0 6 0 3 1021.0 1020.4 0.0
 
Date/Time
CST
Temp
°C
App
Temp
°C
Dew
Point
Rel
Hum
%
Delta-T
°C
Wind Press
QNH
hPa
Press
MSL
hPa
Rain
since 9 am
mm
Dir
 
Spd
km/h
Gust
km/h
Spd
kts
Gust
kts
17/11:30pm 10.2 10.1 9.4 95 0.4 CALM 0 0 0 0 1020.9 - 0.0
17/11:00pm 10.2 10.1 9.4 95 0.4 CALM 0 0 0 0 1021.1 - 0.0
17/10:30pm 10.4 10.3 9.3 93 0.6 CALM 0 0 0 0 1021.3 - 0.0
17/10:00pm 10.7 10.6 9.5 92 0.6 CALM 0 0 0 0 1021.3 - 0.0
17/09:30pm 11.1 11.0 9.4 89 0.9 CALM 0 0 0 0 1021.3 - 0.0
17/09:00pm 11.7 11.7 9.9 89 0.9 CALM 0 0 0 0 1021.2 1020.6 0.0
17/08:30pm 12.2 12.2 9.9 86 1.2 CALM 0 0 0 0 1021.1 - 0.0
17/08:00pm 12.9 13.0 10.1 83 1.5 CALM 0 0 0 0 1021.0 - 0.0
17/07:30pm 13.6 13.8 10.4 81 1.7 CALM 0 0 0 0 1020.9 - 0.0
17/07:00pm 14.6 14.8 10.6 77 2.1 CALM 0 0 0 0 1020.8 - 0.0
17/06:30pm 15.5 15.8 10.9 74 2.5 CALM 0 0 0 0 1020.6 - 0.0
17/06:00pm 17.1 17.3 10.7 66 3.5 CALM 0 0 0 0 1020.3 1019.7 0.0
17/05:30pm 19.2 18.2 10.2 56 4.9 WNW 6 9 3 5 1020.2 - 0.0
17/05:00pm 20.0 17.9 9.9 52 5.5 W 11 17 6 9 1020.1 - 0.0
17/04:30pm 20.9 18.6 10.4 51 5.8 W 13 19 7 10 1019.9 - 0.0
17/04:00pm 21.8 20.1 11.2 51 6.0 W 11 17 6 9 1020.0 - 0.0
17/03:30pm 22.0 20.0 10.2 47 6.5 W 11 19 6 10 1020.1 - 0.0
17/03:00pm 21.9 20.1 10.7 49 6.3 WSW 11 19 6 10 1020.2 1019.6 0.0
17/02:30pm 21.8 19.5 10.6 49 6.3 W 13 22 7 12 1020.4 - 0.0
17/02:00pm 21.5 18.8 10.3 49 6.2 WSW 15 24 8 13 1020.6 - 0.0
17/01:30pm 21.3 18.5 8.6 44 6.8 WSW 13 20 7 11 1020.9 - 0.0
17/01:00pm 21.0 17.9 8.9 46 6.5 W 15 26 8 14 1021.2 - 0.0
17/12:30pm 20.8 18.0 8.4 45 6.6 W 13 20 7 11 1021.5 - 0.0
17/12:00pm 20.8 18.5 10.3 51 5.8 WNW 13 22 7 12 1021.9 1021.3 0.0
17/11:30am 20.2 18.0 9.5 50 5.8 W 11 24 6 13 1022.2 - 0.0
17/11:00am 19.7 18.3 9.0 50 5.7 NNW 6 13 3 7 1022.3 - 0.0
17/10:30am 19.0 18.0 10.3 57 4.8 N 6 13 3 7 1022.3 - 0.0
17/10:00am 18.3 17.7 11.6 65 3.7 NNW 6 9 3 5 1022.3 - 0.0
17/09:30am 16.6 16.3 11.5 72 2.8 NW 4 7 2 4 1022.4 - 0.0
17/09:00am 15.0 15.1 10.2 73 2.6 CALM 0 6 0 3 1022.4 1021.8 0.0
17/08:30am 13.1 13.1 9.9 81 1.7 CALM 0 0 0 0 1022.4 - 0.0
17/08:00am 10.7 10.6 9.3 91 0.7 CALM 0 0 0 0 1022.3 - 0.0
17/07:30am 8.1 7.7 8.1 100 0.0 CALM 0 0 0 0 1022.0 - 0.0
17/07:00am 5.8 4.8 5.8 100 0.0 CALM 0 0 0 0 1021.6 - 0.0
17/06:30am 5.5 4.5 5.4 99 0.0 CALM 0 0 0 0 1021.4 - 0.0
17/06:00am 5.6 4.6 5.5 99 0.0 CALM 0 0 0 0 1021.4 1020.8 0.0
17/05:30am 5.8 4.8 5.7 99 0.0 CALM 0 0 0 0 1021.1 - 0.0
17/05:00am 5.8 4.8 5.7 99 0.0 CALM 0 0 0 0 1020.9 - 0.0
17/04:30am 6.1 5.1 5.8 98 0.1 CALM 0 0 0 0 1020.9 - 0.0
17/04:00am 6.2 5.3 5.9 98 0.1 CALM 0 0 0 0 1020.8 - 0.0
17/03:30am 6.6 5.8 6.3 98 0.1 CALM 0 0 0 0 1020.8 - 0.0
17/03:00am 6.7 5.9 6.4 98 0.1 CALM 0 0 0 0 1020.8 1020.1 0.0
17/02:30am 7.0 6.2 6.7 98 0.1 CALM 0 0 0 0 1020.9 - 0.0
17/02:00am 7.2 6.5 6.9 98 0.1 CALM 0 0 0 0 1021.0 - 0.0
17/01:30am 7.3 6.6 6.9 97 0.2 CALM 0 0 0 0 1021.2 - 0.0
17/01:00am 7.8 7.2 7.4 97 0.2 CALM 0 0 0 0 1021.3 - 0.0
17/12:30am 7.8 7.2 7.4 97 0.2 CALM 0 0 0 0 1021.3 - 0.0
17/12:00am 8.3 7.8 7.7 96 0.3 CALM 0 0 0 0 1021.3 1020.7 0.0
 
Date/Time
CST
Temp
°C
App
Temp
°C
Dew
Point
Rel
Hum
%
Delta-T
°C
Wind Press
QNH
hPa
Press
MSL
hPa
Rain
since 9 am
mm
Dir
 
Spd
km/h
Gust
km/h
Spd
kts
Gust
kts
16/11:30pm 8.5 8.0 7.9 96 0.3 CALM 0 0 0 0 1021.4 - 0.0
16/11:00pm 8.9 8.4 8.0 94 0.4 CALM 0 0 0 0 1021.5 - 0.0
16/10:30pm 9.2 8.8 8.3 94 0.4 CALM 0 0 0 0 1021.5 - 0.0
16/10:00pm 9.9 9.5 8.3 90 0.8 CALM 0 0 0 0 1021.5 - 0.0
16/09:30pm 10.4 10.1 8.8 90 0.8 CALM 0 0 0 0 1021.4 - 0.0

Other Formats:

Comma delimited format used in spreadsheet applications
http://www.bom.gov.au/fwo/IDS60801/IDS60801.95667.axf

JavaScript Object Notation format (JSON) in row-major order
http://www.bom.gov.au/fwo/IDS60801/IDS60801.95667.json